Regional Weather Roundup
Issued by NWS Newport/Morehead, NC

Current Version | Previous Version | Graphics & Text | Print | Product List | Glossary Off
Versions: 1 2 3 4 5 6 7 8 9 10 11 12 13 14 15 16 17 18 19 20 21 22 23 24 25 26 27 28 29 30 31 32 33 34 35 36 37 38 39 40 41 42 43 44 45 46 47 48 49 50

000
ASUS42 KMHX 231313
RWRMHX
WEATHER ROUNDUP FOR EASTERN NORTH CAROLINA
NATIONAL WEATHER SERVICE NEWPORT/MOREHEAD CITY NC
800 AM EST TUE JAN 23 2018

NOTE: "FAIR" INDICATES FEW OR NO CLOUDS BELOW 12,000 FEET
WITH NO SIGNIFICANT WEATHER AND/OR OBSTRUCTIONS TO VISIBILITY

NCZ015>017-031-032-045>047-102-103-231400-
NORTH COAST

CITY           SKY/WX    TMP DP  RH WIND       PRES   REMARKS
EDENTON        CLOUDY    62  59  91 S14       29.83F
ELIZABETH CITY MOCLDY    64  64 100 S13G21    29.83F
KITTY HAWK     PTSUNNY  N/A N/A N/A S12G20    29.86F
MANTEO         MOCLDY    56  56  98 S18       29.88F

$$

NCZ045>047-081-094-103-104-231400-
CENTRAL COAST

CITY           SKY/WX    TMP DP  RH WIND       PRES   REMARKS
FRISCO         NOT AVBL

$$

NCZ095-097-098-100-101-231400-
SOUTHERN COAST

CITY           SKY/WX    TMP DP  RH WIND       PRES   REMARKS
BEAUFORT       MOCLDY    62  60  93 S18       29.90F
CEDAR ISLAND   NOT AVBL
JACKSONVILLE   RAIN      67  65  93 S16G24    29.88S
PINEY ISLAND   NOT AVBL
WILMINGTON     LGT RAIN  65  65 100 SW15G22   29.90R FOG


$$

NCZ011>013-027>030-043-044-078>080-089-090>093-098-231400-
COASTAL PLAIN

CITY           SKY/WX    TMP DP  RH WIND       PRES   REMARKS
AHOSKIE        CLOUDY    65  61  87 S12G22    29.78F
CLINTON        CLOUDY    65  65 100 S9G21     29.84S
ELIZABETHTOWN  NOT AVBL
GOLDSBORO      LGT RAIN  64  63  94 S14G24    29.80S
GREENVILLE     LGT RAIN  64  63  94 S17G23    29.85R
HAVELOCK       MOCLDY    69  64  84 S17G25    29.89F
KENANSVILLE    RAIN      64  64 100 SW5G20    29.85R FOG
KINSTON        RAIN      66  63  88 S20G30    29.83F
NEW BERN       LGT RAIN  66  63  90 S20G26    29.86F
RICHLANDS      LGT RAIN  66  64  93 S21G28    29.86F
ROCKY MOUNT    LGT RAIN  64  64 100 S14G24    29.78F
WASHINGTON     LGT RAIN  66  62  85 S14G25    29.83F
WHITEVILLE     CLOUDY    66  64  91 SW14G20   29.87R

$$

AMZ130-135-150-152-154-156-158-170-250-252-270-ANZ085-086-088-633-658-670-231400-
MARINE OBSERVATIONS

STATION/POSITION TIME  TEMP    WIND        PRES    WAVE   SWELL
                       AIR SEA DIR/SP/G            HT/PER HT/PER
                 (UTC) (F)     (DEG/KT/KT) (MB)    (FT/S) (FT/S)
CHESAPEAKE LIGHT NOT AVBL
64 E VA BEACH    1250   63 58  190/ 19/ 23 1012.1    5/ 6   2/ 9
DUCK             1248   62 41  180/ 21/ 25 1010.2
2 E DUCK         1300      42                N/A     3/ 6
OREGON INLET     1236   56 44  160/ 12/ 18 1012.4
13E OREGON INLT  1248      41                N/A     6/ 7   5/ 7
HATTERAS CG      1248   67 54  180/  9/ 19 1012.5
DIAMOND BUOY     1250   72 70  180/ 29/ 39 1013.5   10/ 7
CAPE LOOKOUT     1300          180/ 14/ 14 1013.1
BEAUFORT LAB     1248   57 49  180/ 12/ 14 1012.5
30 SE NEW RVR IN 1208   66 58  190/ 16/ 21 1012.9
30 SE NEW RVR IN 1300      58                N/A     8/ 7
27 SE WRIGHTSVLE 1208   66 60  190/ 21/ 29 1012.9
5 SE WRIGHTSVLE  1208   54 47  190/ 12/ 16 1012.2
225 S CAPE HAT   1150   70 70  170/ 16/ 19 1018.6    5/ 6   2/ 9
41 SE CHARLESTON 1250   68 69  220/ 25/ 31 1013.4    6/ 7   3/ 7

$$



USA.gov is the U.S. government's official web portal to all federal, state and local government web resources and services.